Find Starlink 4622

NORAD ID: 53648 Int'l Des: 2022-105 Owner: SPXS Country: US Constellation: starlink operational
LEOCIRCULARRETROGRADESSO

Live Position

Loading 3D Globe...

About Starlink 4622

Description loading...

Upcoming Passes

Passes for default location (London). Set your location on the main map for personalized predictions.

Altitude History

Loading altitude history...

Two-Line Element Set

1 53648U 22105A 26126.41487837 .00000711 00000-0 53412-4 0 9993
2 53648 97.5298 6.9675 0002257 80.4641 279.6841 15.05644289201925
Epoch: May 6, 2026 • Age: 14 hours

Current Status

Altitude 553.5 km
Velocity 7.58 km/s
Sub-Earth Point -6.32°S, 139.26°E
Launch Date Aug 31, 2022
Age 3.6 years
Type internet

Technical Details

Classification Payload
Mass 300.00 kg
Dry Mass 290.00 kg
Total Mass 300.00 kg
Length 0.20 m
Diameter 2.80 m
Span 9.00 m
Shape Box + pan
Manufacturer SPXS
Bus Type Starlink
Phase Status In Orbit
Owner/State SPXS/US

Most Searched